ARIANE 5 R/B, 40148

Orbit data source: Space-Track

ARIANE 5 R/B, 40148 is space debris in HEO originally from a launch on Thu, 11 Sep 2014 UTC launched from the French Guiana (FRGUI). Debris objects in space refer to the collection of defunct objects orbiting the Earth. Examples of debris include non-operational satellites, rocket bodies, and fragments generated from explosions, collisions, or faulty payload assembly.

Loading next visibility...
Identifier
40148, 2014-054C
Orbit
HEO
Last TLE update
19 hours ago
Origin
Manufacturer
ADS/LV
Mission
Spacecraft
Bus & Motor
ESC-A, Unknown motor
Mass
~5,000 kg wet, ~5,000 kg dry
Launch date (UTC)
2014-09-11 (11 years ago)
Launch vehicle
Unknown
Launch site
French Guiana (FRGUI)
Object type
Payload
Rocket body
Debris
Shape & HBR
Cyl + 1 Nozzle, 7 m
Radar Cross Section
41.627 m², Large (>1 m²)

Expand to show TLE details & history

TLE from 19 hours ago
0 ARIANE 5 R/B
1 40148U 14054C   25128.49361959  .00005437  00000-0  13248-2 0  9994
2 40148   5.6180 231.8921 7058874 339.0781   2.6353  2.56707778 93364
Epoch: 2025-05-08T11:50Z
Definitive object data (Epoch: 2025-05-08T11:50:48.732Z)
Latitude
-0.00039°
Longitude
-172.45829°
Altitude
412.533 km
Speed
9.984 km/s
True Right ascension
15h 27m 13s
True Declination
0° 00' 01"
Sunlit
Object was in full shadow at TLE epoch
Visualization TLE readout
Latitude
5.61119°
Longitude
-90.83118°
Altitude
6,859.058 km
Speed
6.521 km/s
Apparent Right ascension
22h 17m 15s
Apparent Declination
-11° 28' 09"
Sunlit
Object is in daylight
Visualization observer readout
Local Sidereal Time
15:11:00
Azimuth
88.367° E
Elevation
-19.992°
Doppler factor
1
Orbital elements
Apogee altitude
32,066.074 km
Perigee altitude
250.042 km
Semi-major axis
22,536.195 km
Eccentricity
0.7058874
Inclination
5.618°
RAAN
231.8921°
Arg. of periapsis
339.0781°
True anomaly
21.17284°
Mean anomaly
2.6353°
Eccentric anomaly
8.87509°
Mean motion
0.64154 °/min
BSTAR
0.0013248
Orbital period
561.15 mins
Loading maneuver chart data...
Loading SW <> Apogee altitude chart data...
Loading historical data...
Loading historical data...
Loading historical data...
Loading historical data...
Loading historical data...
Loading historical data...
Loading historical data...
Other satellites on launch #54 in the year 2014 (2014-09-11 UTC)

ARIANE 5 R/B Visibility forecast

Observer location: undefined°, undefined°

Span
Click to sort rows by Start time (UTC) header in descending order
Start Az.
Max El. time (UTC)
Max El. Az.
Max El.
End time (UTC)
End Az.
492 mins2025-05-09 16:31:04.069Z244.146° WSW2025-05-09 18:19:04.069Z223.144° SW30.721°2025-05-10 00:43:04.069Z201.283° SSW
|